Weather History for KOXI - October, 2012

Change the Weather History Date:

Wednesday, October 24, 2012

  Actual Average (KVPZ) Record (KVPZ)
Temperature  
Mean Temperature 68 °F 50 °F  
Max Temperature 93 °F 60 °F 79 °F (2012)
Min Temperature 59 °F 40 °F 30 °F (1999)
Degree Days  
Heating Degree Days 0 15  
Month to date heating degree days 287  
Since 1 July heating degree days 417  
Cooling Degree Days 4 0  
Month to date cooling degree days 11  
Year to date cooling degree days 713  
Growing Degree Days 18 (Base 50)    
Moisture  
Dew Point 59 °F    
Average Humidity 75    
Maximum Humidity 91    
Minimum Humidity 56    
Precipitation  
Precipitation 0.00 in 0.11 in 0.92 in (2001)
Month to date precipitation 2.56  
Year to date precipitation 31.31  
Sea Level Pressure  
Sea Level Pressure 29.95 in    
Wind  
Wind Speed 9 mph (South)    
Max Wind Speed 16 mph    
Max Gust Speed 22 mph    
Visibility 10 miles    
Events      
T = Trace of Precipitation, MM = Missing Value Source: NWS Daily Summary

Daily Weather History Graph

Daily Weather History Graph

Search for Another Location

Airport or City:

Trip Planner

Search our weather history database for the weather conditions in past years. The results will help you decide how hot, cold, wet, or windy it might be!

Date:

Astronomy

Oct. 24, 2012 Rise Set
Actual Time 7:09 AM CDT 5:51 PM CDT
Civil Twilight 6:40 AM CDT 6:19 PM CDT
Nautical Twilight 6:08 AM CDT 6:52 PM CDT
Astronomical Twilight 5:36 AM CDT 7:24 PM CDT
Moon 3:10 PM CDT (10/24) 2:00 AM CDT (10/24)
Length of Visible Light 11h 39m
Length of Day
10h 42m
Waxing Gibbous, 76% of the Moon is Illuminated
Oct 24
Waxing Gibbous
Oct 29
Full
Nov 6
Last Quarter
Nov 13
New
Nov 20
First Quarter

Hourly Weather History & Observations

Time (CDT) Temp. Dew Point Humidity Pressure Visibility Wind Dir Wind Speed Gust Speed Precip Events Conditions
12:15 AM 62.1 °F 59.2 °F 90% 29.97 in 10.0 mi South 5.8 mph - N/A   Overcast
12:35 AM 61.9 °F 59.2 °F 91% 29.97 in 10.0 mi SSW 4.6 mph - N/A   Overcast
12:55 AM 61.9 °F 59.0 °F 90% 29.96 in 10.0 mi South 5.8 mph - N/A   Overcast
1:15 AM 62.4 °F 58.8 °F 88% 29.96 in 10.0 mi South 8.1 mph - N/A   Overcast
1:35 AM 62.6 °F 58.6 °F 87% 29.96 in 10.0 mi South 9.2 mph - N/A   Overcast
1:55 AM 63.1 °F 58.5 °F 85% 29.95 in 10.0 mi South 9.2 mph - N/A   Overcast
2:15 AM 63.5 °F 58.3 °F 83% 29.96 in 10.0 mi SSW 9.2 mph - N/A   Overcast
2:35 AM 63.9 °F 58.3 °F 82% 29.96 in 10.0 mi South 9.2 mph - N/A   Overcast
2:55 AM 63.9 °F 58.1 °F 81% 29.96 in 10.0 mi SSW 8.1 mph - N/A   Overcast
3:15 AM 63.9 °F 58.1 °F 81% 29.96 in 10.0 mi South 9.2 mph - N/A   Overcast
3:35 AM 64.4 °F 58.1 °F 80% 29.96 in 10.0 mi SSW 11.5 mph 16.1 mph N/A   Overcast
3:55 AM 64.6 °F 57.9 °F 79% 29.95 in 10.0 mi SSW 16.1 mph 19.6 mph N/A   Overcast
4:15 AM 64.0 °F 57.6 °F 79% 29.96 in 10.0 mi SSW 10.4 mph 16.1 mph N/A   Scattered Clouds
4:35 AM 63.9 °F 57.6 °F 80% 29.96 in 10.0 mi SSW 10.4 mph 16.1 mph N/A   Mostly Cloudy
4:55 AM 64.0 °F 57.4 °F 79% 29.96 in 10.0 mi SSW 9.2 mph - N/A   Overcast
5:15 AM 63.5 °F 57.2 °F 80% 29.96 in 10.0 mi SSW 9.2 mph - N/A   Scattered Clouds
5:35 AM 62.6 °F 57.2 °F 82% 29.97 in 10.0 mi SSW 6.9 mph - N/A   Scattered Clouds
5:55 AM 62.1 °F 57.2 °F 84% 29.97 in 10.0 mi SSW 6.9 mph - N/A   Mostly Cloudy
6:15 AM 61.7 °F 56.8 °F 84% 29.97 in 10.0 mi South 6.9 mph - N/A   Scattered Clouds
6:35 AM 61.0 °F 56.7 °F 86% 29.97 in 10.0 mi South 8.1 mph - N/A   Clear
6:55 AM 60.6 °F 56.5 °F 86% 29.98 in 10.0 mi South 6.9 mph - N/A   Clear
7:15 AM 59.9 °F 56.3 °F 88% 29.98 in 10.0 mi South 6.9 mph - N/A   Clear
7:35 AM 59.7 °F 56.3 °F 88% 29.98 in 10.0 mi South 6.9 mph - N/A   Clear
7:55 AM 59.9 °F 56.5 °F 88% 29.99 in 10.0 mi South 9.2 mph - N/A   Clear
8:15 AM 61.2 °F 56.8 °F 86% 29.99 in 10.0 mi South 9.2 mph - N/A   Clear
8:35 AM 62.4 °F 57.2 °F 83% 30.00 in 10.0 mi SSW 10.4 mph - N/A   Clear
8:55 AM 63.7 °F 57.2 °F 79% 30.00 in 10.0 mi SSW 8.1 mph - N/A   Clear
9:55 AM 67.6 °F 57.9 °F 71% 29.99 in 10.0 mi SSW 10.4 mph 17.3 mph N/A   Clear
10:15 AM 69.1 °F 58.1 °F 68% 29.99 in 10.0 mi SSW 13.8 mph - N/A   Clear
11:15 AM 71.8 °F 59.4 °F 65% 29.99 in 10.0 mi South 10.4 mph - N/A   Clear
11:35 AM 72.7 °F 59.4 °F 63% 29.98 in 10.0 mi South 10.4 mph - N/A   Clear
11:55 AM 72.9 °F 59.5 °F 63% 29.98 in 10.0 mi SSW 12.7 mph - N/A   Scattered Clouds
12:15 PM 73.2 °F 59.9 °F 63% 29.98 in 10.0 mi SW 8.1 mph - N/A   Clear
12:35 PM 74.1 °F 60.3 °F 62% 29.97 in 10.0 mi SSW 9.2 mph - N/A   Clear
12:55 PM 74.8 °F 60.3 °F 60% 29.96 in 10.0 mi SSW 13.8 mph 19.6 mph N/A   Clear
1:15 PM 75.6 °F 60.6 °F 60% 29.95 in 10.0 mi South 11.5 mph - N/A   Clear
1:35 PM 75.7 °F 60.6 °F 59% 29.95 in 10.0 mi South 9.2 mph - N/A   Clear
1:55 PM 76.3 °F 60.6 °F 58% 29.94 in 10.0 mi South 12.7 mph - N/A   Clear
2:15 PM 77.2 °F 61.0 °F 57% 29.93 in 10.0 mi SSW 12.7 mph 16.1 mph N/A   Clear
2:35 PM 78.1 °F 61.2 °F 56% 29.93 in 10.0 mi South 12.7 mph 18.4 mph N/A   Clear
2:55 PM 78.1 °F 61.5 °F 57% 29.93 in 10.0 mi South 12.7 mph - N/A   Clear
3:15 PM 78.6 °F 61.5 °F 56% 29.92 in 10.0 mi South 16.1 mph 21.9 mph N/A   Clear
3:35 PM 78.4 °F 61.7 °F 56% 29.92 in 10.0 mi South 12.7 mph - N/A   Clear
4:15 PM 77.4 °F 62.1 °F 59% 29.91 in 10.0 mi South 12.7 mph - N/A   Clear
4:35 PM 77.4 °F 62.2 °F 59% 29.91 in 10.0 mi South 16.1 mph - N/A   Scattered Clouds
4:55 PM 76.6 °F 62.2 °F 61% 29.92 in 10.0 mi South 11.5 mph - N/A   Scattered Clouds
5:15 PM 75.7 °F 62.2 °F 63% 29.92 in 10.0 mi South 11.5 mph - N/A   Clear
5:35 PM 74.8 °F 61.9 °F 64% 29.92 in 10.0 mi South 10.4 mph - N/A   Clear
5:55 PM 73.4 °F 61.9 °F 67% 29.93 in 10.0 mi South 9.2 mph - N/A   Clear
6:15 PM 72.0 °F 61.7 °F 70% 29.93 in 10.0 mi South 8.1 mph - N/A   Clear
6:35 PM 70.7 °F 61.7 °F 73% 29.93 in 10.0 mi South 8.1 mph - N/A   Clear
6:55 PM 70.0 °F 61.7 °F 75% 29.93 in 10.0 mi South 9.2 mph - N/A   Clear
7:15 PM 69.8 °F 61.3 °F 74% 29.94 in 10.0 mi South 8.1 mph - N/A   Clear
7:35 PM 69.1 °F 61.3 °F 76% 29.93 in 10.0 mi South 8.1 mph - N/A   Clear
8:15 PM 68.2 °F 61.7 °F 80% 29.94 in 10.0 mi South 8.1 mph - N/A   Clear
8:35 PM 67.1 °F 61.3 °F 82% 29.94 in 10.0 mi South 6.9 mph - N/A   Clear
9:35 PM 65.8 °F 60.8 °F 84% 29.94 in 10.0 mi South 8.1 mph - N/A   Clear
10:15 PM 65.8 °F 60.3 °F 82% 29.94 in 10.0 mi South 8.1 mph - N/A   Clear
10:35 PM 66.0 °F 59.9 °F 81% 29.93 in 10.0 mi South 10.4 mph - N/A   Clear
10:55 PM 66.0 °F 59.4 °F 79% 29.93 in 10.0 mi South 11.5 mph - N/A   Clear
11:15 PM 66.0 °F 58.8 °F 78% 29.93 in 10.0 mi South 12.7 mph - N/A   Clear
11:35 PM 65.7 °F 58.8 °F 79% 29.93 in 10.0 mi South 10.4 mph - N/A   Clear
11:55 PM 65.1 °F 58.8 °F 80% 29.93 in 10.0 mi South 12.7 mph - N/A   Clear